Time,TemperatureF,DewpointF,PressureIn,WindDirection,WindDirectionDegrees,WindSpeedMPH,WindSpeedGustMPH,Humidity,HourlyPrecipIn,Conditions,Clouds,dailyrainin,SoftwareType,DateUTC
2013-01-16 00:07:00,30.0,27.4,30.04,West,270,0.0,-999.0,90,-99.99,,,0.00,Acu-Link.com,2013-01-16 05:07:00,
2013-01-16 00:22:00,29.5,27.5,30.03,SSW,202,0.0,-999.0,92,-99.99,,,0.00,Acu-Link.com,2013-01-16 05:22:00,
2013-01-16 00:37:00,29.3,27.5,30.03,West,270,1.1,-999.0,93,-99.99,,,0.00,Acu-Link.com,2013-01-16 05:37:00,
2013-01-16 00:53:00,29.3,27.8,30.02,WNW,292,0.0,-999.0,94,-99.99,,,0.00,Acu-Link.com,2013-01-16 05:53:00,
2013-01-16 01:08:00,29.1,27.9,30.03,West,270,0.0,-999.0,95,-99.99,,,0.00,Acu-Link.com,2013-01-16 06:08:00,
2013-01-16 01:23:00,28.9,27.9,30.02,West,270,0.0,-999.0,96,-99.99,,,0.00,Acu-Link.com,2013-01-16 06:23:00,
2013-01-16 01:38:00,28.9,27.9,30.01,SE,135,0.0,-999.0,96,-99.99,,,0.00,Acu-Link.com,2013-01-16 06:38:00,
2013-01-16 01:53:00,28.9,27.9,30.01,South,180,0.0,-999.0,96,-99.99,,,0.00,Acu-Link.com,2013-01-16 06:53:00,
2013-01-16 02:08:00,28.9,27.9,30.01,West,270,0.0,-999.0,96,-99.99,,,0.00,Acu-Link.com,2013-01-16 07:08:00,
2013-01-16 02:23:00,28.8,27.8,30.00,SW,225,0.0,-999.0,96,-99.99,,,0.00,Acu-Link.com,2013-01-16 07:23:00,
2013-01-16 02:38:00,28.8,27.8,29.99,West,270,0.0,-999.0,96,-99.99,,,0.00,Acu-Link.com,2013-01-16 07:38:00,
2013-01-16 02:53:00,28.8,28.1,29.98,West,270,0.0,-999.0,97,-99.99,,,0.00,Acu-Link.com,2013-01-16 07:53:00,
2013-01-16 03:09:00,28.8,28.1,29.97,ENE,67,0.0,-999.0,97,-99.99,,,0.00,Acu-Link.com,2013-01-16 08:09:00,
2013-01-16 03:24:00,28.8,28.1,29.97,SSW,202,0.0,-999.0,97,-99.99,,,0.00,Acu-Link.com,2013-01-16 08:24:00,
2013-01-16 03:39:00,28.8,28.1,29.96,SSW,202,0.0,-999.0,97,-99.99,,,0.00,Acu-Link.com,2013-01-16 08:39:00,
2013-01-16 03:54:00,28.8,28.1,29.96,West,270,0.0,-999.0,97,-99.99,,,0.00,Acu-Link.com,2013-01-16 08:54:00,
2013-01-16 04:22:00,28.8,28.1,29.96,SSE,157,0.0,-999.0,97,-99.99,,,0.00,Acu-Link.com,2013-01-16 09:22:00,
2013-01-16 04:37:00,28.8,28.3,29.93,SSE,157,0.0,-999.0,98,-99.99,,,0.00,Acu-Link.com,2013-01-16 09:37:00,
2013-01-16 04:52:00,28.8,28.3,29.92,NE,45,0.0,-999.0,98,-99.99,,,0.00,Acu-Link.com,2013-01-16 09:52:00,
2013-01-16 05:07:00,28.8,28.3,29.91,WNW,292,0.0,-999.0,98,-99.99,,,0.00,Acu-Link.com,2013-01-16 10:07:00,
2013-01-16 05:22:00,28.8,28.1,29.91,South,180,0.0,-999.0,97,-99.99,,,0.00,Acu-Link.com,2013-01-16 10:22:00,
2013-01-16 05:37:00,28.8,28.1,29.92,East,90,0.0,-999.0,97,-99.99,,,0.00,Acu-Link.com,2013-01-16 10:37:00,
2013-01-16 05:53:00,28.8,28.1,29.90,West,270,0.0,-999.0,97,-99.99,,,0.00,Acu-Link.com,2013-01-16 10:53:00,
2013-01-16 06:08:00,28.8,28.1,29.90,NE,45,0.0,-999.0,97,-99.99,,,0.00,Acu-Link.com,2013-01-16 11:08:00,
2013-01-16 06:23:00,28.8,28.1,29.90,West,270,0.0,-999.0,97,-99.99,,,0.00,Acu-Link.com,2013-01-16 11:23:00,
2013-01-16 06:38:00,28.8,28.1,29.89,West,270,0.0,-999.0,97,-99.99,,,0.00,Acu-Link.com,2013-01-16 11:38:00,
2013-01-16 06:53:00,28.8,28.1,29.90,WNW,292,0.0,-999.0,97,-99.99,,,0.00,Acu-Link.com,2013-01-16 11:53:00,
2013-01-16 07:08:00,28.8,28.1,29.88,SSE,157,0.0,-999.0,97,-99.99,,,0.00,Acu-Link.com,2013-01-16 12:08:00,
2013-01-16 07:23:00,28.8,28.3,29.87,SSE,157,0.0,-999.0,98,-99.99,,,0.00,Acu-Link.com,2013-01-16 12:23:00,
2013-01-16 07:38:00,28.8,28.3,29.87,NNW,337,0.0,-999.0,98,-99.99,,,0.00,Acu-Link.com,2013-01-16 12:38:00,
2013-01-16 07:53:00,28.9,27.7,29.86,SSE,157,0.0,-999.0,95,-99.99,,,0.00,Acu-Link.com,2013-01-16 12:53:00,
2013-01-16 08:09:00,29.1,27.9,29.87,West,270,0.0,-999.0,95,-99.99,,,0.00,Acu-Link.com,2013-01-16 13:09:00,
2013-01-16 08:24:00,29.1,28.1,29.87,NNE,22,0.0,-999.0,96,-99.99,,,0.00,Acu-Link.com,2013-01-16 13:24:00,
2013-01-16 08:39:00,29.5,28.5,29.89,West,270,0.0,-999.0,96,-99.99,,,0.00,Acu-Link.com,2013-01-16 13:39:00,
2013-01-16 08:54:00,29.7,28.4,29.87,SSE,157,0.0,-999.0,95,-99.99,,,0.00,Acu-Link.com,2013-01-16 13:54:00,
2013-01-16 09:09:00,29.8,28.3,29.84,SE,135,0.0,-999.0,94,-99.99,,,0.00,Acu-Link.com,2013-01-16 14:09:00,
2013-01-16 09:24:00,30.2,28.4,29.86,West,270,0.0,-999.0,93,-99.99,,,0.00,Acu-Link.com,2013-01-16 14:24:00,
2013-01-16 09:39:00,30.2,28.4,29.87,ENE,67,0.0,-999.0,93,-99.99,,,0.00,Acu-Link.com,2013-01-16 14:39:00,
2013-01-16 09:54:00,30.4,28.6,29.86,SSE,157,0.0,-999.0,93,-99.99,,,0.00,Acu-Link.com,2013-01-16 14:54:00,
2013-01-16 10:09:00,30.6,29.1,29.85,East,90,0.0,-999.0,94,-99.99,,,0.00,Acu-Link.com,2013-01-16 15:09:00,
2013-01-16 10:25:00,30.6,28.8,29.83,East,90,0.0,-999.0,93,-99.99,,,0.00,Acu-Link.com,2013-01-16 15:25:00,
2013-01-16 10:40:00,30.7,28.7,29.85,WNW,292,0.0,-999.0,92,-99.99,,,0.00,Acu-Link.com,2013-01-16 15:40:00,
2013-01-16 10:55:00,30.9,29.1,29.83,West,270,0.0,-999.0,93,-99.99,,,0.00,Acu-Link.com,2013-01-16 15:55:00,
2013-01-16 11:10:00,31.5,29.7,29.80,SE,135,0.0,-999.0,93,-99.99,,,0.00,Acu-Link.com,2013-01-16 16:10:00,
2013-01-16 11:25:00,31.8,29.7,29.78,East,90,0.0,-999.0,92,-99.99,,,0.00,Acu-Link.com,2013-01-16 16:25:00,
2013-01-16 11:40:00,32.4,30.3,29.76,South,180,0.0,-999.0,92,-99.99,,,0.00,Acu-Link.com,2013-01-16 16:40:00,
2013-01-16 11:55:00,32.0,29.9,29.78,ENE,67,0.0,-999.0,92,-99.99,,,0.00,Acu-Link.com,2013-01-16 16:55:00,
2013-01-16 12:10:00,32.5,30.4,29.76,SW,225,0.0,-999.0,92,-99.99,,,0.00,Acu-Link.com,2013-01-16 17:10:00,
2013-01-16 12:25:00,33.3,31.0,29.77,West,270,0.0,-999.0,91,-99.99,,,0.00,Acu-Link.com,2013-01-16 17:25:00,
2013-01-16 12:41:00,34.7,31.5,29.77,SE,135,0.0,-999.0,88,-99.99,,,0.00,Acu-Link.com,2013-01-16 17:41:00,
2013-01-16 12:56:00,34.7,31.8,29.74,WSW,247,0.0,-999.0,89,-99.99,,,0.00,Acu-Link.com,2013-01-16 17:56:00,
2013-01-16 13:11:00,33.4,31.1,29.74,West,270,0.0,-999.0,91,-99.99,,,0.00,Acu-Link.com,2013-01-16 18:11:00,
2013-01-16 13:26:00,34.9,32.0,29.74,ESE,112,0.0,-999.0,89,-99.99,,,0.00,Acu-Link.com,2013-01-16 18:26:00,
2013-01-16 13:41:00,34.9,32.0,29.75,West,270,0.0,-999.0,89,-99.99,,,0.00,Acu-Link.com,2013-01-16 18:41:00,
2013-01-16 13:56:00,35.2,32.3,29.74,West,270,0.0,-999.0,89,-99.99,,,0.00,Acu-Link.com,2013-01-16 18:56:00,
2013-01-16 14:11:00,35.8,32.6,29.74,West,270,0.0,-999.0,88,-99.99,,,0.00,Acu-Link.com,2013-01-16 19:11:00,
2013-01-16 14:26:00,36.3,32.5,29.74,SSE,157,0.0,-999.0,86,-99.99,,,0.00,Acu-Link.com,2013-01-16 19:26:00,
2013-01-16 14:41:00,36.3,32.2,29.74,SSE,157,0.0,-999.0,85,-99.99,,,0.00,Acu-Link.com,2013-01-16 19:41:00,
2013-01-16 14:56:00,35.8,32.0,29.74,SSE,157,0.0,-999.0,86,-99.99,,,0.00,Acu-Link.com,2013-01-16 19:56:00,
2013-01-16 15:12:00,36.3,32.2,29.74,SE,135,0.0,-999.0,85,-99.99,,,0.00,Acu-Link.com,2013-01-16 20:12:00,
2013-01-16 15:27:00,35.6,32.1,29.73,East,90,0.0,-999.0,87,-99.99,,,0.00,Acu-Link.com,2013-01-16 20:27:00,
2013-01-16 15:42:00,36.0,32.5,29.73,SSE,157,0.0,-999.0,87,-99.99,,,0.00,Acu-Link.com,2013-01-16 20:42:00,
2013-01-16 15:57:00,35.6,32.1,29.73,ENE,67,0.0,-999.0,87,-99.99,,,0.00,Acu-Link.com,2013-01-16 20:57:00,
2013-01-16 16:12:00,34.7,31.8,29.75,East,90,0.0,-999.0,89,-99.99,,,0.00,Acu-Link.com,2013-01-16 21:12:00,
2013-01-16 16:27:00,34.2,31.6,29.74,ESE,112,0.0,-999.0,90,-99.99,,,0.00,Acu-Link.com,2013-01-16 21:27:00,
2013-01-16 16:42:00,33.4,31.6,29.75,ENE,67,0.0,-999.0,93,-99.99,,,0.00,Acu-Link.com,2013-01-16 21:42:00,
2013-01-16 16:57:00,33.3,31.8,29.76,West,270,0.0,-999.0,94,-99.99,,,0.00,Acu-Link.com,2013-01-16 21:57:00,
2013-01-16 17:12:00,33.1,31.8,29.76,NNE,22,0.0,-999.0,95,-99.99,,,0.00,Acu-Link.com,2013-01-16 22:12:00,
2013-01-16 17:28:00,32.7,31.7,29.76,ESE,112,0.0,-999.0,96,-99.99,,,0.00,Acu-Link.com,2013-01-16 22:28:00,
2013-01-16 17:43:00,32.7,31.7,29.76,NE,45,0.0,-999.0,96,-99.99,,,0.00,Acu-Link.com,2013-01-16 22:43:00,
2013-01-16 17:58:00,32.7,31.7,29.77,NE,45,0.0,-999.0,96,-99.99,,,0.00,Acu-Link.com,2013-01-16 22:58:00,
2013-01-16 18:13:00,32.5,31.7,29.78,West,270,0.0,-999.0,97,-99.99,,,0.00,Acu-Link.com,2013-01-16 23:13:00,
2013-01-16 18:28:00,32.4,31.6,29.78,WNW,292,0.0,-999.0,97,-99.99,,,0.00,Acu-Link.com,2013-01-16 23:28:00,
2013-01-16 18:43:00,32.2,31.7,29.78,WNW,292,0.0,-999.0,98,-99.99,,,0.00,Acu-Link.com,2013-01-16 23:43:00,
2013-01-16 18:58:00,32.2,31.7,29.78,West,270,0.0,-999.0,98,-99.99,,,0.00,Acu-Link.com,2013-01-16 23:58:00,
2013-01-16 19:13:00,32.2,31.7,29.79,ENE,67,0.0,-999.0,98,-99.99,,,0.00,Acu-Link.com,2013-01-17 00:13:00,
2013-01-16 19:28:00,32.2,31.7,29.80,East,90,0.0,-999.0,98,-99.99,,,0.00,Acu-Link.com,2013-01-17 00:28:00,
2013-01-16 19:44:00,32.0,31.5,29.79,NE,45,0.0,-999.0,98,-99.99,,,0.00,Acu-Link.com,2013-01-17 00:44:00,
2013-01-16 19:59:00,32.0,31.5,29.80,SSW,202,0.0,-999.0,98,-99.99,,,0.01,Acu-Link.com,2013-01-17 00:59:00,
2013-01-16 20:14:00,32.2,31.7,29.79,SE,135,0.0,-999.0,98,-99.99,,,0.02,Acu-Link.com,2013-01-17 01:14:00,
2013-01-16 20:29:00,32.0,31.5,29.79,ESE,112,0.0,-999.0,98,-99.99,,,0.02,Acu-Link.com,2013-01-17 01:29:00,
2013-01-16 20:44:00,32.5,31.0,29.81,ENE,67,0.0,-999.0,94,-99.99,,,0.02,Acu-Link.com,2013-01-17 01:44:00,
2013-01-16 20:59:00,32.9,30.8,29.80,ENE,67,0.0,-999.0,92,-99.99,,,0.02,Acu-Link.com,2013-01-17 01:59:00,
2013-01-16 21:14:00,32.0,30.7,29.79,West,270,0.0,-999.0,95,-99.99,,,0.03,Acu-Link.com,2013-01-17 02:14:00,
2013-01-16 21:29:00,32.2,30.7,29.79,NW,315,0.0,-999.0,94,-99.99,,,0.03,Acu-Link.com,2013-01-17 02:29:00,
2013-01-16 21:44:00,31.6,30.3,29.80,NE,45,0.0,-999.0,95,-99.99,,,0.03,Acu-Link.com,2013-01-17 02:44:00,
2013-01-16 22:00:00,32.0,30.2,29.80,WNW,292,0.0,-999.0,93,-99.99,,,0.03,Acu-Link.com,2013-01-17 03:00:00,
2013-01-16 22:15:00,32.4,29.8,29.79,ENE,67,0.0,-999.0,90,-99.99,,,0.04,Acu-Link.com,2013-01-17 03:15:00,
2013-01-16 22:30:00,31.8,29.7,29.79,ESE,112,0.0,-999.0,92,-99.99,,,0.04,Acu-Link.com,2013-01-17 03:30:00,
2013-01-16 22:45:00,32.0,29.9,29.79,ENE,67,0.0,-999.0,92,-99.99,,,0.04,Acu-Link.com,2013-01-17 03:45:00,
2013-01-16 23:00:00,31.5,30.0,29.80,East,90,0.0,-999.0,94,-99.99,,,0.04,Acu-Link.com,2013-01-17 04:00:00,
2013-01-16 23:15:00,31.1,29.6,29.80,West,270,0.0,-999.0,94,-99.99,,,0.04,Acu-Link.com,2013-01-17 04:15:00,
2013-01-16 23:30:00,30.9,29.4,29.80,East,90,0.0,-999.0,94,-99.99,,,0.04,Acu-Link.com,2013-01-17 04:30:00,
2013-01-16 23:45:00,30.9,29.1,29.80,NE,45,0.0,-999.0,93,-99.99,,,0.04,Acu-Link.com,2013-01-17 04:45:00,